• Join FlightAware (Why Join?)
  • Login
  • US Flag 
05:19PM EDT


 

Airport Tracker/Info


-or-


 

Live Flight TrackerFlight Track Log ✈ EJA831 ✈ 12-Jul-2013 ✈ KPWK - KSAW

Flight Track Log - Related Links

Times and Time Zones

All times are in EDT time to prevent confusion due to time zone crossing. See the EJA831 flight status page for this flight to view local times or setup timezone preferences in your user account.

Time Position Orientation Groundspeed Altitude Reporting Facility
EDT Latitude Longitude Course Direction KTS MPH feet Rate Location/Type
08:30AM 42.1375 -87.9081 33° Northeast 171 197 22,000  Level Chicago Center
08:31AM 42.1753 -87.8744 33° Northeast 189 217 4,600 -7,140 Descending Chicago Center
08:32AM 42.2286 -87.8211 37° Northeast 242 278 7,300 3,000 Climbing Chicago Center
08:33AM 42.3228 -87.8200 360° North 284 327 10,900 3,120 Climbing Chicago Center
08:35AM 42.4014 -87.8267 356° North 293 337 13,700 2,700 Climbing Chicago Center
08:36AM 42.4839 -87.8217 North 294 338 16,500 2,460 Climbing Chicago Center
08:37AM 42.5681 -87.8169 North 301 346 18,900 2,280 Climbing Chicago Center
08:38AM 42.6717 -87.8117 North 317 365 21,300 1,500 Climbing Chicago Center
08:39AM 42.7661 -87.8050 North 337 388 22,000 300 Climbing Chicago Center
08:40AM 42.8711 -87.7975 North 369 425 22,000  Level Chicago Center
08:41AM 42.9783 -87.7903 North 382 440 22,000  Level Chicago Center
08:42AM 43.0811 -87.7844 North 374 430 22,000  Level Chicago Center
08:43AM 43.2056 -87.7761 North 382 440 22,000  Level Chicago Center
08:44AM 43.3108 -87.7694 North 381 438 22,000  Level Chicago Center
08:45AM 43.4158 -87.7622 North 380 437 22,000  Level Chicago Center
08:46AM 43.5200 -87.7558 North 377 434 22,000  Level Chicago Center
08:47AM 43.6225 -87.7506 North 372 428 22,000  Level Chicago Center
08:48AM 43.7411 -87.7428 North 369 425 22,000  Level Chicago Center
08:49AM 43.8419 -87.7372 North 365 420 22,000  Level Chicago Center
08:50AM 43.9428 -87.7300 North 363 418 22,000  Level Chicago Center
08:51AM 44.0431 -87.7247 North 362 417 22,000  Level Chicago Center
08:52AM 44.1431 -87.7172 North 361 415 22,000  Level Chicago Center
08:53AM 44.2439 -87.7122 North 362 417 22,000  Level Chicago Center
08:54AM 44.3597 -87.7042 North 358 412 22,000  Level Chicago Center
08:55AM 44.4608 -87.6978 North 361 415 22,000  Level Chicago Center
08:56AM 44.5519 -87.6911 North 362 417 22,000  Level Chicago Center
08:57AM 44.6728 -87.6822 North 363 418 22,000  Level Chicago Center
08:59AM 44.7922 -87.6733 North 360 414 22,000  Level Minneapolis Center
09:00AM 44.9144 -87.6658 North 364 419 22,000  Level Minneapolis Center
09:01AM 45.0164 -87.6581 North 365 420 22,000  Level Minneapolis Center
09:02AM 45.1383 -87.6492 North 366 421 22,000 -120 Level Minneapolis Center
09:03AM 45.2397 -87.6325 North 365 420 21,800 -1,080 Descending Minneapolis Center
09:04AM 45.3392 -87.6133 North 361 415 19,800 -1,680 Descending Minneapolis Center
09:05AM 45.4414 -87.5917 North 368 423 18,400 -1,380 Descending Minneapolis Center
09:06AM 45.5517 -87.5681 North 367 422 17,000 -1,500 Descending Minneapolis Center
09:07AM 45.6514 -87.5475 North 357 411 15,400 -1,500 Descending Minneapolis Center
09:08AM 45.7478 -87.5267 North 344 396 14,000 -720 Descending Minneapolis Center
09:09AM 45.8519 -87.5056 North 346 398 14,000 -60 Level Minneapolis Center
09:10AM 45.9486 -87.4858 North 345 397 13,900 -1,440 Descending Minneapolis Center
09:11AM 46.0428 -87.4653 North 338 389 11,100 -2,700 Descending Minneapolis Center
09:12AM 46.1292 -87.4469 North 307 353 8,400 -2,700 Descending Minneapolis Center
09:13AM 46.2050 -87.4294 North 274 315 5,600 -2,580 Descending Minneapolis Center
09:14AM 46.2756 -87.4133 North 253 291 3,200 -2,040 Descending Minneapolis Center
09:15AM 46.3281 -87.4014 North 188 216 1,400 -1,800 Descending Minneapolis Center
09:17AM 46.3500 -87.3833 North  Level FlightAware Approximate